Wind_Speed
3 7 8 5 7 2 5 4 5 3 3 4 7 12 10 11 6 8 8 9 10 13 24 18 30 34 33 34 34 37 37 40 38 38 33 34 34 31 31 29 28 27 26 26
5 18 24 5 3 7 3 2 3 4 3 4 7 14 10 8 9 9 10 9 12 12 10 17 26 30 36 38 36 36 40 41 43 41 37 35 35 35 33 31 30 28 28 27
10 2 12 8 6 8 4 6 3 5 2 3 3 12 11 8 12 9 9 11 10 15 15 13 19 30 32 35 43 40 40 42 41 40 35 33 29 30 32 34 33 32 31 30
8 4 15 14 10 10 11 7 5 4 3 5 5 7 7 6 14 10 16 13 15 13 12 13 18 22 33 41 38 44 41 41 42 40 37 36 32 29 33 34 36 35 34 34
9 12 14 13 17 14 6 7 11 1 3 5 4 4 5 2 7 10 15 16 15 13 15 14 18 29 37 38 40 43 43 41 42 41 40 40 35 32 33 34 36 36 37 37
8 4 11 9 9 15 6 5 2 3 2 10 10 9 6 8 7 8 9 12 13 11 11 15 24 27 29 34 35 38 40 43 42 43 43 42 39 36 30 34 35 37 37 38
12 10 3 6 6 6 8 9 3 6 7 11 6 8 20 6 9 11 14 13 10 10 9 12 10 18 25 30 34 38 40 39 42 44 44 45 43 36 36 37 35 31 35 39
13 11 15 15 13 10 25 17 5 8 6 5 4 10 7 13 18 17 11 11 8 9 8 10 12 19 25 31 35 34 36 38 39 41 44 44 41 41 41 37 34 36 37 40
15 17 7 10 7 15 9 14 8 5 2 2 5 8 7 10 11 10 11 10 13 9 7 8 10 20 26 30 34 38 36 37 38 42 41 39 41 41 38 39 37 39 40 40
4 11 9 14 3 4 13 14 5 1 4 6 6 6 10 6 21 19 12 12 13 8 7 6 4 7 17 25 30 32 34 36 38 38 37 38 40 42 43 38 39 41 41 38
8 3 1 11 16 23 11 15 8 6 5 5 3 8 8 19 16 18 19 10 9 9 9 6 4 3 3 9 17 22 27 29 31 32 33 35 36 36 37 39 41 41 40 39
11 0 3 18 10 14 19 13 20 7 13 4 2 11 5 10 8 4 8 8 6 6 8 6 6 8 8 8 10 14 19 22 24 25 27 29 30 32 34 37 37 37 38 37
19 6 5 5 7 4 17 23 25 24 2 17 10 15 4 5 6 8 8 8 8 7 7 6 5 7 10 10 10 10 11 14 16 19 23 25 26 27 28 28 29 30 31 32
14 11 9 14 6 5 20 25 24 25 14 24 21 29 5 5 6 5 6 8 8 9 9 6 6 7 10 9 8 6 5 6 7 8 11 14 15 16 17 18 18 20 20 21
11 21 23 24 18 8 12 26 26 24 33 19 31 20 23 12 7 8 6 5 7 8 9 8 7 7 8 8 6 4 3 3 5 5 4 5 5 5 6 8 9 7 8 10
6 6 17 23 22 22 20 20 26 27 30 25 32 24 9 12 5 3 8 9 10 12 10 9 8 7 10 10 7 5 2 3 4 3 2 2 2 2 3 3 2 3 3 5
4 10 7 17 13 8 14 29 29 31 34 33 31 40 6 9 12 13 11 12 16 16 12 10 9 9 14 12 9 8 7 7 8 8 8 6 6 6 4 3 2 1 1 1
8 8 12 10 13 24 17 5 28 33 34 31 33 24 24 16 19 17 12 17 16 11 11 10 9 15 15 12 11 10 9 9 9 9 8 7 6 6 6 4 4 4 4 2
17 10 6 7 21 14 9 9 20 27 33 30 29 32 24 7 4 11 15 14 20 16 10 14 23 21 16 15 14 14 13 12 11 10 9 9 9 10 9 9 8 6 3 1
20 18 12 12 18 28 26 33 12 14 23 25 31 33 28 11 10 23 12 10 8 10 17 20 22 20 18 16 17 18 16 15 13 11 10 11 10 11 11 11 11 9 7 6
11 9 18 19 17 11 14 11 21 18 22 31 28 32 29 17 27 24 12 9 9 12 21 24 23 21 19 19 20 19 17 16 14 14 12 11 10 9 8 9 8 8 6 5
13 9 12 13 11 16 11 19 27 35 20 1 27 33 21 29 23 8 11 11 14 14 19 25 23 23 21 21 22 22 18 16 15 15 14 13 12 11 10 9 8 6 4 3
6 11 13 11 14 3 18 16 4 7 14 8 13 10 24 22 23 14 11 14 12 14 18 23 24 23 20 20 20 22 18 18 17 16 16 16 14 12 12 12 11 10 10 11
4 4 7 4 16 11 11 6 10 4 5 5 4 5 8 22 18 12 15 15 13 14 16 21 26 20 19 19 20 20 21 21 22 21 19 16 15 16 14 14 12 13 13 14
2 4 10 13 2 3 6 13 6 3 1 4 3 1 8 10 12 14 12 12 12 16 19 23 20 21 22 21 21 21 22 23 23 22 21 20 18 17 18 17 15 15 14 12
5 1 4 5 8 9 5 8 8 7 6 5 5 2 2 8 15 13 12 13 16 17 20 20 21 24 26 25 24 22 22 22 25 24 22 20 20 19 19 19 19 16 13 11
Wind_Direction
146 204 234 201 219 176 152 169 175 219 263 196 237 250 247 260 246 243 239 228 228 226 239 229 230 227 227 226 226 227 225 220 218 218 220 226 227 230 229 232 235 235 234 232
149 214 210 186 251 222 160 206 219 296 272 174 284 268 242 238 248 233 227 227 231 235 229 226 225 224 222 223 224 226 226 224 223 221 221 225 227 232 233 235 237 239 238 238
194 326 169 183 178 204 196 177 189 206 317 220 279 272 264 241 237 240 234 226 220 222 227 226 210 217 220 219 222 224 226 225 225 224 221 225 228 235 235 236 238 238 238 240
222 182 173 182 210 200 228 170 205 219 166 227 160 280 247 237 244 236 247 226 231 226 227 226 213 211 213 224 221 224 227 224 226 225 218 219 220 224 231 234 239 240 238 239
199 193 182 193 199 190 206 159 209 245 277 339 217 275 268 254 256 246 245 240 231 224 222 225 210 214 217 221 219 222 224 226 226 224 221 222 222 228 233 237 241 241 241 240
214 192 179 196 183 180 130 94 91 73 130 255 223 216 205 213 207 241 249 248 238 225 214 225 222 220 220 220 216 217 219 225 225 226 225 224 223 223 227 234 238 242 244 244
204 194 177 161 146 146 174 159 186 199 211 244 182 199 245 231 236 241 251 248 243 236 208 215 212 206 212 212 214 216 218 220 224 225 226 228 229 226 228 233 236 235 241 245
205 214 182 195 195 176 197 185 170 194 204 258 92 232 244 211 230 244 236 252 269 256 226 214 215 211 209 211 211 211 214 219 221 225 229 231 232 232 235 236 233 241 242 249
197 225 153 190 181 162 188 208 187 99 64 50 218 282 288 250 262 260 243 234 246 247 258 232 221 220 216 216 215 216 216 221 225 228 230 230 233 234 234 238 242 247 250 253
237 231 199 187 125 245 184 179 183 140 165 245 255 264 236 233 223 231 244 224 234 229 240 235 204 210 222 226 227 224 224 225 228 233 232 234 236 239 242 240 245 249 252 254
218 196 259 165 199 192 188 194 197 182 173 196 258 254 209 217 216 232 232 208 210 215 219 211 195 155 160 212 218 222 223 225 229 232 236 236 238 241 243 244 248 251 255 256
188 123 227 222 213 227 208 205 203 213 218 222 178 257 242 235 251 286 233 204 199 199 197 186 179 163 156 158 178 203 216 223 231 235 237 240 243 244 244 246 250 253 255 257
200 195 209 172 242 273 212 208 202 212 83 216 218 255 194 224 251 231 225 208 187 175 168 174 172 179 168 167 172 184 200 216 224 229 233 237 239 241 243 247 253 256 257 259
176 204 219 232 244 122 213 215 213 206 224 234 227 247 233 240 254 253 217 204 183 170 173 185 183 192 184 177 170 174 191 212 219 229 235 240 244 247 252 256 259 261 260 261
236 228 230 234 236 247 237 217 209 206 222 218 240 236 241 264 241 227 217 163 166 180 189 196 189 185 183 182 183 196 224 232 225 228 240 250 255 254 253 253 256 256 261 263
235 238 221 243 246 243 242 230 216 217 226 230 248 245 226 219 274 213 206 192 193 199 199 198 190 175 184 181 185 200 227 219 209 199 180 176 190 207 212 229 233 243 243 256
266 236 226 233 222 227 246 219 219 218 225 217 230 235 130 192 213 218 213 204 208 203 192 191 185 184 183 180 183 191 192 188 181 177 173 177 180 181 173 168 170 154 124 81
203 265 244 257 204 229 236 229 219 220 224 220 232 240 222 214 219 232 219 202 214 196 192 187 176 176 175 174 171 172 175 174 169 161 161 161 164 161 154 154 144 133 128 117
214 186 258 276 247 261 271 213 200 209 233 228 234 244 238 216 126 255 219 213 207 192 189 186 181 173 169 170 169 165 158 161 160 162 169 174 173 169 166 162 155 138 122 153
201 211 204 237 268 239 239 235 181 189 250 223 222 235 229 177 221 243 186 180 187 171 165 155 167 166 163 164 167 164 160 160 162 167 172 174 175 179 174 177 176 176 180 199
193 199 218 230 241 255 237 164 147 185 231 231 213 228 225 202 220 236 168 168 148 154 157 165 162 161 163 165 167 160 160 164 164 162 168 171 166 172 167 167 163 167 183 187
186 187 222 220 216 255 161 146 169 214 206 229 209 223 222 218 224 179 167 153 150 145 149 159 154 155 160 167 169 162 162 154 158 148 152 145 148 144 141 134 126 121 109 88
205 195 215 208 224 321 176 196 177 198 195 230 217 228 217 222 211 170 165 154 155 154 150 155 146 143 154 166 176 159 148 150 145 149 139 138 134 126 119 116 111 99 77 53
250 133 235 154 237 227 220 262 211 192 213 206 253 203 205 215 198 172 157 152 147 148 153 148 143 142 149 162 167 152 149 155 151 142 136 129 128 122 114 105 97 94 83 72
135 157 201 250 293 336 264 241 272 214 194 153 111 195 214 155 172 159 151 149 147 149 142 152 147 145 146 152 149 152 157 158 149 143 137 136 129 124 117 110 102 100 88 80
352 300 209 212 18 315 278 344 275 218 212 193 155 128 106 168 161 147 150 147 143 141 142 134 145 143 148 150 147 156 159 165 150 141 139 134 130 130 128 123 107 92 92 95
Height
830 837 834 831 829 831 838 838 839 833 826 831 829 829 827 819 820 821 821 820 818 816 808 816 818 821 824 827 829 831 835 839 842 846 850 853 853 856 857 859 862 864 866 867
833 825 820 828 830 833 836 839 841 836 829 834 833 827 824 820 815 810 811 814 812 809 809 809 811 815 816 819 822 825 828 833 836 840 844 847 849 851 854 855 858 860 863 865
819 817 820 827 831 835 839 840 842 840 831 832 832 828 819 812 807 803 801 799 800 801 801 802 804 806 810 813 813 818 821 825 830 835 840 844 847 848 850 850 852 854 858 860
815 813 816 823 825 830 837 835 836 838 840 847 830 839 813 810 803 800 791 794 792 793 792 791 795 799 801 801 808 811 815 820 823 827 832 835 838 839 840 843 845 848 851 852
807 812 817 822 814 827 831 831 836 838 844 843 835 838 810 805 808 799 786 783 782 782 783 784 786 787 790 795 799 802 808 813 817 820 824 827 830 833 834 837 839 840 843 845
805 806 811 811 814 819 827 836 839 844 847 841 830 834 810 805 800 791 782 778 773 774 776 776 776 781 784 788 793 796 801 804 810 813 816 819 821 824 827 830 833 834 837 839
803 806 804 805 818 823 827 833 845 848 845 826 822 838 788 787 783 777 772 770 768 768 770 770 771 774 778 782 785 789 793 796 800 804 809 812 814 819 821 824 827 830 830 832
802 813 799 794 799 808 816 820 838 841 840 826 833 818 783 772 764 760 767 767 766 765 764 764 763 765 769 773 777 783 786 789 794 797 800 805 810 812 814 816 820 821 824 825
787 788 787 789 794 797 813 814 808 834 884 850 823 802 781 773 770 766 763 763 761 762 761 759 759 759 762 767 770 774 779 783 787 789 794 798 802 805 807 810 813 814 816 818
785 788 786 789 792 794 792 794 818 828 845 843 813 809 775 769 754 747 753 756 752 758 759 757 756 756 757 761 765 769 773 777 781 784 788 791 794 797 800 804 805 807 808 811
784 788 791 788 782 778 788 791 796 796 815 811 813 785 766 750 750 744 737 744 750 753 755 756 756 755 755 757 761 764 768 772 776 779 782 785 788 791 794 796 797 799 802 804
780 789 790 778 771 773 773 781 788 793 798 809 806 764 747 749 743 740 740 741 744 747 751 754 755 754 755 756 759 761 765 768 772 775 778 779 782 783 786 787 790 792 794 795
771 784 783 782 785 781 770 764 764 770 788 784 792 751 744 745 741 741 741 741 742 747 753 755 756 755 754 756 758 761 762 765 768 770 772 775 778 780 781 782 785 787 789 790
763 771 772 758 750 762 769 761 760 769 780 760 765 741 744 739 740 741 739 739 740 743 750 754 754 754 755 756 757 760 762 764 766 768 770 773 775 776 778 779 781 783 785 786
763 758 757 748 752 752 752 753 756 758 750 768 737 750 740 739 739 738 735 741 745 746 748 750 749 751 753 755 757 759 762 763 765 767 769 770 772 774 775 776 777 779 781 782
762 752 756 753 753 749 747 751 747 748 745 752 735 737 726 733 736 739 736 739 740 741 741 743 744 746 749 751 753 757 760 762 764 765 767 769 771 773 774 776 777 777 779 781
765 759 759 743 746 753 751 735 737 727 719 727 731 705 727 733 733 733 734 735 731 729 734 738 740 742 746 747 748 752 755 757 759 761 763 765 767 769 771 772 774 775 777 778
757 769 759 741 742 733 714 723 719 721 710 717 714 702 711 716 712 715 717 719 723 725 729 732 734 739 743 745 747 750 753 755 757 759 761 763 765 767 768 771 772 773 774 775
751 754 768 756 727 718 717 717 707 709 691 701 713 700 705 714 719 715 706 706 707 714 720 723 728 733 737 740 742 745 750 753 755 757 758 761 762 763 765 766 768 770 771 772
739 744 747 754 731 703 681 667 695 708 708 692 690 682 691 712 722 682 695 703 708 711 714 721 728 731 733 737 740 743 746 748 751 755 759 760 761 762 761 763 763 765 766 768
734 737 740 733 725 700 663 676 685 718 680 655 670 665 673 694 676 658 684 694 698 706 714 721 726 729 732 736 740 742 745 746 749 750 756 761 760 763 763 765 766 768 770 768
696 708 711 715 700 684 663 671 670 626 652 647 646 642 660 662 661 680 682 691 696 703 714 717 721 725 731 738 742 742 745 746 753 750 758 759 763 763 764 765 768 771 771 771
687 670 681 699 666 662 642 635 636 641 646 648 647 647 648 656 660 673 680 688 694 701 708 714 719 726 731 737 742 745 743 747 750 757 759 761 763 765 764 763 767 769 771 774
672 670 675 678 646 653 655 644 637 642 642 643 643 642 644 644 652 668 672 679 691 702 709 710 716 724 732 737 742 740 743 748 750 755 758 760 762 762 764 765 768 768 771 771
679 679 669 667 660 653 651 649 647 642 643 644 647 645 645 649 658 663 671 680 689 699 705 712 717 723 730 736 738 742 747 748 748 754 754 756 758 761 762 766 768 767 769 771
704 698 670 646 695 697 652 657 651 646 640 640 644 645 647 649 654 660 671 676 685 698 706 711 721 722 726 732 736 745 746 749 748 752 754 757 758 760 762 764 765 769 772 773